Location: Arkum
(53.0297°N, 5.4995°E)
Time: 02:44:49
(UTC+00:00)

Daily predictions for brighter satellites

Satellite Brightness Start Highest point End
(mag) Time Altitude Azimuth Time Altitude Azimuth Time Altitude Azimuth
Cosmos 1626 2.0 00:02:18 34° S 00:03:50 85° E 00:07:32 10° NNE
Cosmos 220 Rocket 3.9 00:02:16 30° S 00:04:17 72° ESE 00:08:29 10° NNE
NOSS 2-2 (D) 4.1 00:00:15 10° NW 00:04:59 69° SW 00:11:38 10° SE
Cosmos 1461 3.6 00:01:28 10° WNW 00:05:15 35° WSW 00:06:31 28° SSW
Cosmos 1937 Rocket 4.3 00:01:03 13° SW 00:05:29 47° NW 00:10:37 10° NNE
Gblst 52 Del rocket 4.2 00:01:01 10° WSW 00:07:09 67° SSE 00:12:42 10° E
Cosmos 1553 Rocket 4.0 00:03:21 23° SSW 00:07:21 85° W 00:13:37 10° N
Cosmos 1867 3.7 00:05:01 24° SSW 00:08:16 62° SE 00:13:42 10° NE
Cosmos 2221 Rocket 3.6 00:06:47 27° SSW 00:09:07 78° WNW 00:13:34 10° N
Cosmos 1674 Rocket 3.5 00:06:55 28° S 00:09:09 76° E 00:13:29 10° NNE
Cosmos 1238 Rocket 2.6 00:08:29 10° NNW 00:11:21 46° W 00:12:06 36° SW
Cosmos 2369 Rocket 4.4 00:07:46 10° NNW 00:12:23 25° NE 00:16:59 10° E
USA 306 4.2 00:11:52 22° SSE 00:12:23 22° SE 00:15:39 10° E
Cosmos 1674 2.8 00:10:51 30° SSW 00:12:32 65° WNW 00:16:19 10° N
ATLAS CENTAUR R/B 3.3 00:09:34 10° WNW 00:12:57 19° WSW 00:13:59 18° SW
USA 307 4.3 00:15:20 21° SSE 00:15:52 21° SE 00:19:03 10° E
SL-16 R/B 4.2 00:16:41 10° SE 00:20:05 16° E 00:23:29 10° ENE
ATLAS 5 CENTAUR R/B 3.7 00:07:26 10° NW 00:21:37 51° WSW 00:24:39 22° S
CZ-4C R/B 3.4 00:15:13 10° NW 00:22:00 45° WSW 00:27:52 18° S
Cosmos 1455 Rocket 4.0 00:18:07 10° N 00:22:26 45° ENE 00:26:10 13° SE
ERBS 4.2 00:22:52 14° SE 00:22:52 14° SE 00:24:18 10° E
Cosmos 2322 Rocket 3.9 00:18:07 10° W 00:22:59 29° NW 00:27:53 10° NNE
Cosmos 1980 4.3 00:20:38 22° S 00:23:59 46° ESE 00:29:22 10° NE
Cosmos 2333 Rocket 2.8 00:19:42 13° SW 00:24:35 55° NW 00:30:12 10° NNE
Cosmos 1378 Rocket 3.6 00:22:19 27° SSW 00:24:44 82° W 00:29:13 10° N
Cosmos 2322 4.0 00:20:47 17° SW 00:25:13 68° NW 00:30:58 10° NNE
USA 215 3.3 00:19:31 10° ENE 00:26:06 85° NNW 00:32:41 10° WSW
PSLV R/B 4.1 00:28:00 10° N 00:32:15 52° WNW 00:35:01 21° SW
NOSS 0 Rocket 4.1 00:29:22 22° SSW 00:33:31 65° ESE 00:39:43 10° NE
Meteor 2-10 Rocket 3.7 00:31:06 10° NNW 00:36:52 83° ENE 00:41:17 16° SSE
USA 32 4.1 00:35:15 21° S 00:38:48 76° E 00:44:04 10° N
Cosmos 1745 Rocket 4.3 00:34:22 10° NNW 00:40:27 55° W 00:44:34 20° SSW
Cosmos 839 Rocket 4.3 00:36:19 10° NW 00:42:26 55° WSW 00:49:12 11° SSE
Cosmos 1975 Rocket 3.9 00:39:39 18° SSE 00:42:40 44° E 00:46:56 10° NNE
ADEOS Rocket 4.3 00:42:18 15° SW 00:45:32 23° W 00:50:12 10° NW
USA 308 3.8 00:44:46 24° S 00:46:15 31° SE 00:49:58 10° E
Cosmos 2219 Rocket 2.9 00:42:56 12° WSW 00:47:53 48° NW 00:53:20 10° NNE
Cosmos 1455 3.8 00:45:15 10° N 00:48:33 30° ENE 00:51:51 10° SE
Cosmos 1269 Rocket 4.1 00:43:58 10° NNW 00:49:18 78° ENE 00:54:35 10° SSE
Cosmos 1025 Rocket 3.9 00:47:03 16° SSE 00:50:08 42° E 00:54:12 10° NNE
GP-B 3.1 00:50:43 10° N 00:55:11 84° W 00:58:07 21° S
CZ-2D R/B 2.9 00:52:55 10° NNE 00:58:05 44° E 01:02:28 14° SSE
Cosmos 1300 3.1 00:55:50 10° NNW 00:59:30 47° W 01:01:27 24° SSW
Meteor 2-5 Rocket 4.2 00:55:38 15° S 01:00:17 55° E 01:05:48 10° NNE
Lacrosse 5 3.3 00:58:31 16° S 01:01:08 24° SE 01:05:10 10° ENE
USA 267 4.4 01:02:14 18° SSW 01:04:35 21° SW 01:09:25 10° WNW
SL-14 R/B 3.7 01:02:27 22° SW 01:04:42 50° WNW 01:08:29 10° N
Cosmos 1544 Rocket 3.9 01:04:27 10° N 01:08:53 66° ENE 01:13:10 10° SSE
Cosmos 371 Rocket 3.4 01:06:03 19° SW 01:09:31 69° WNW 01:14:23 10° NNE
USA 305 3.2 01:07:08 21° SW 01:09:33 46° SSE 01:13:34 10° ENE
Cosmos 2150 Rocket 4.1 01:06:08 18° SW 01:09:57 68° WNW 01:15:07 10° NNE
ATLAS 2AS CENTAUR R/B 4.4 01:05:27 10° WNW 01:12:24 36° N 01:18:57 10° ENE
Cosmos 2237 Rocket 2.2 01:11:28 18° SSW 01:15:49 87° WNW 01:21:35 10° NNE
COSMOS 2428 3.6 01:12:17 10° WSW 01:17:39 43° NW 01:23:04 10° NNE
Cosmos 1437 Rocket 4.5 01:15:09 10° NW 01:17:45 18° W 01:19:16 14° WSW
Cosmos 405 Rocket 4.3 01:18:03 13° WSW 01:20:30 24° WNW 01:23:41 10° N
Cosmos 304 Rocket 3.8 01:17:17 19° SSW 01:20:48 82° WNW 01:25:40 10° NNE
SL-16 R/B 2.6 01:15:29 10° SSE 01:21:43 88° WSW 01:28:01 10° NNW
Helios 1A 3.9 01:18:38 10° SE 01:22:41 49° ENE 01:26:47 10° N
Lacrosse 5 rocket 3.2 01:21:54 12° SSE 01:23:57 18° SE 01:26:41 10° E
Cosmos 1125 Rocket 4.0 01:20:01 15° SW 01:24:10 53° WNW 01:29:17 10° NNE
Cosmos 1953 4.1 01:21:38 10° NW 01:24:30 19° W 01:26:26 14° WSW
Cosmos 2074 Rocket 4.1 01:20:40 10° N 01:27:01 88° E 01:33:19 10° S
SME Rocket 3.8 01:24:34 18° SSW 01:27:23 44° W 01:32:32 10° NNW
Resurs 1-4 Rocket 2.2 01:22:06 10° NNE 01:27:24 74° ESE 01:31:56 14° S
Cosmos 2360 Rocket 4.4 01:24:33 10° WNW 01:28:42 20° NNW 01:32:54 10° NNE
Cosmos 2297 3.7 01:26:06 10° NNW 01:31:53 80° WSW 01:37:38 10° SSE
Cosmos 1943 Rocket 2.2 01:26:15 10° NW 01:31:54 65° WSW 01:37:29 10° SSE
Cosmos 2315 Rocket 4.5 01:35:34 15° SW 01:40:49 52° WNW 01:47:04 10° N
Cosmos 2184 Rocket 4.0 01:35:36 10° NNW 01:41:54 78° W 01:48:06 10° S
Cosmos 2278 Rocket 3.7 01:38:32 10° WNW 01:42:25 19° W 01:45:23 13° SW
ADEOS II 2.6 01:38:05 10° NNE 01:43:18 57° E 01:48:28 10° S
CRYOSAT 2 4.4 01:39:08 10° S 01:44:00 85° E 01:48:56 10° N
IDEFIX/ARIANE 42P 3.3 01:39:01 10° NNE 01:44:10 50° E 01:49:17 10° S
USA 306 2.8 01:47:34 11° WSW 01:51:28 69° SSE 01:55:38 10° ENE
Thor Agena Rocket 4.2 01:46:28 10° N 01:51:30 46° WNW 01:56:09 12° SW
Cosmos 2084 Rocket 3.3 01:49:15 15° SW 01:52:16 65° SE 01:56:04 10° NE
USA 307 2.9 01:51:04 12° WSW 01:54:58 66° SSE 01:59:08 10° ENE
NPP 3.7 01:50:00 10° NNE 01:55:25 83° WNW 02:00:35 11° SSW
Cosmos 2369 Rocket 2.2 01:51:34 10° NNW 01:57:13 87° ENE 02:02:49 10° SSE
ERBS 2.0 01:54:54 14° SW 01:57:26 76° SSE 02:00:31 10° ENE
Gblst 52 Del rocket 4.1 01:52:53 10° W 01:58:43 75° S 02:04:12 10° ESE
Cosmos 1455 Rocket 4.4 01:56:23 10° NNW 02:00:02 25° W 02:03:15 12° SW
CZ-4 R/B 4.0 01:55:49 10° N 02:00:26 61° WNW 02:04:41 12° SSW
Cosmos 614 Rocket 4.0 01:55:39 10° NNW 02:00:48 64° WSW 02:05:57 10° S
Cosmos 2228 3.3 01:56:28 10° N 02:00:53 73° ENE 02:05:12 10° SSE
EO 1 Del DPAF 3.5 01:58:06 10° NNE 02:01:36 58° ESE 02:05:04 10° S
Cosmos 2251 Rocket 3.6 01:57:32 10° NNW 02:02:50 88° ENE 02:08:08 10° SSE
SL-16 R/B 2.3 01:58:00 12° SSW 02:03:18 80° ESE 02:09:01 10° NNE
Cosmos 1656 Rocket 3.7 02:01:09 10° NNW 02:06:38 83° ENE 02:12:03 10° SSE
Meteor 1-28 Rocket 3.3 02:04:07 10° S 02:07:48 57° W 02:11:29 10° NNW
USA 215 3.8 02:02:30 10° ENE 02:08:58 64° N 02:15:26 10° W
Cosmos 2333 Rocket 4.4 02:06:09 10° WNW 02:10:11 19° NNW 02:14:14 10° NNE
COSMOS 2455 3.4 02:05:01 10° SSW 02:10:50 52° ESE 02:16:41 10° NE
NOSS 3 (A) 4.1 02:10:22 14° WSW 02:11:36 40° NW 02:13:27 10° NE
Cosmos 1536 Rocket 3.6 02:08:12 10° SSW 02:12:38 83° WNW 02:17:03 10° N
Iridium 82 4.5 02:09:22 10° S 02:12:57 75° W 02:16:30 10° N
Cosmos 1975 Rocket 4.5 02:16:59 10° SW 02:20:43 26° WNW 02:24:31 10° N
MSX 4.1 02:15:29 10° NNE 02:21:17 75° ESE 02:27:04 10° S
Nadezhda 1 Rocket 4.1 02:15:51 10° SSW 02:22:13 79° W 02:28:32 10° N
Meteor 1-24 Rocket 4.2 02:17:06 10° SW 02:22:28 46° WNW 02:27:42 10° N
Cosmos 1455 3.3 02:20:49 10° NNW 02:23:59 27° W 02:27:07 10° SSW
USA 308 2.8 02:21:22 10° WSW 02:25:33 84° SSE 02:29:45 10° ENE
MOS 1 Rocket 4.0 02:23:52 10° SSW 02:27:42 32° W 02:31:35 10° NNW
Cosmos 1025 Rocket 4.4 02:24:14 10° SW 02:27:53 26° WNW 02:31:32 10° N
Cosmos 1271 Rocket 3.2 02:24:18 10° NNW 02:27:55 41° W 02:31:33 10° SSW
Cosmos 1606 Rocket 3.6 02:27:36 10° NNW 02:32:04 83° W 02:36:27 10° S
Cosmos 2219 Rocket 4.4 02:29:33 10° WNW 02:33:16 18° NNW 02:36:59 10° NNE
ALOS 4.0 02:31:22 10° NNE 02:35:29 30° E 02:39:36 10° SSE
CZ-2C R/B 4.1 02:32:59 10° NNE 02:37:38 33° E 02:42:09 10° SSE
CZ-2D R/B 3.0 02:33:08 10° N 02:38:05 37° WNW 02:42:56 10° SW
